Regional Weather Roundup
Issued by NWS

Home | Current Version | Previous Version | Graphics & Text | Print | Product List | Glossary On
Versions: 1 2 3 4 5 6 7 8 9 10 11 12 13 14 15 16 17 18 19 20 21 22 23 24 25 26 27 28 29 30 31 32 33 34 35 36 37 38 39 40 41 42 43 44 45 46 47 48 49 50
000
ASUS43 KDTX 302001
RWRMI
MICHIGAN HOURLY REGIONAL WEATHER ROUNDUP
NATIONAL WEATHER SERVICE DETROIT/PONTIAC MI
400 PM EDT SUN APR 30 2017

NOTE: "FAIR" INDICATES FEW OR NO CLOUDS BELOW 12,000 FEET WITH NO
SIGNIFICANT WEATHER AND/OR OBSTRUCTION TO VISIBILITY.

MIZ047>049-052>055-059>063-066>070-074>076-081>083-302100-
SOUTHEAST LOWER MICHIGAN

CITY           SKY/WX    TMP DP  RH WIND       PRES   REMARKS
ADRIAN         CLOUDY    55  53  93 E7        29.86F
ALMA           LGT RAIN  41  40  97 E14       29.90F
ANN ARBOR      CLOUDY    52  51  97 E7        29.86F
BAD AXE        LGT RAIN  39  37  94 E12G18    29.92F WCI  32
CARO           RAIN      41  40  97 NE3       29.90S
DETROIT CITY   CLOUDY    53  50  89 E12       29.88F
DETROIT        CLOUDY    55  51  86 E6        29.88F
FLINT          LGT RAIN  46  45  96 E8        29.87F
GROSSE ILE     PTSUNNY   54  50  85 NE3       29.86F
HILLSDALE      CLOUDY    54  52  94 SE6       29.83F FOG
HOWELL         LGT RAIN  50  48  92 SE8       29.85F

CITY           SKY/WX    TMP DP  RH WIND       PRES   REMARKS
JACKSON        LGT RAIN  53  51  93 SE6       29.84F
LAMBERTVILLE   CLOUDY    53  50  89 E8        29.85F
LANSING        LGT RAIN  48  44  86 N8        29.85F FOG
LAPEER         DRIZZLE   46  45  97 CALM      29.89F
MASON          RAIN      51  51  97 SE7       29.84F
MONROE         DRIZZLE   55  51  83 E10       29.85F
MT. CLEMENS    CLOUDY    52  51  99 NE6       29.87F
PONTIAC        LGT RAIN  49  46  90 SE7       29.87F FOG
PORT HOPE        N/A     40  39  97 E24       29.92F WCI  29
PORT HURON     DRIZZLE   50  46  87 NE3       29.90F
TRI CITIES     CLOUDY    42  40  92 E15G23    29.91F
MIDLAND        LGT RAIN  42  39  90 NE14      29.92F
TROY           LGT RAIN  52  48  87 E7        29.89F
SAGINAW HB     CLOUDY    41  37  87 NE12      29.90F
$$
MIZ043>046-050>051-056>058-064>065-071>073-077>080-302100-
SOUTHWEST LOWER MICHIGAN

CITY           SKY/WX    TMP DP  RH WIND       PRES   REMARKS
BATTLE CREEK   LGT RAIN  60  59  96 SE5       29.82S
BENTON HARBOR  CLOUDY    55  52  89 CALM      29.80S FOG
BIG RAPIDS     LGT RAIN  41  39  90 E8        29.91R
COLDWATER      RAIN      59  59 100 SE6       29.83F
FREMONT        DRIZZLE   44  43  97 E14       29.88F
HOLLAND        LGT RAIN  46  44  93 E7        29.84R FOG
GRAND RAPIDS   LGT RAIN  44  44 100 E12       29.84F FOG
IONIA          CLOUDY    42  41  96 NE12      29.85F
KALAMAZOO      LGT RAIN  61  58  90 VRB6      29.80F FOG
LUDINGTON      CLOUDY    44  43  95 E9        29.91S
MARSHALL       LGT RAIN  58  58  99 SE8       29.81F
MOUNT PLEASANT HVY RAIN  41  39  93 E13G18    29.91S
MUSKEGON       LGT RAIN  46  43  89 E12       29.86F FOG
SOUTH HAVEN    CLOUDY    49  48  97 NE6       29.80F FOG
$$
MIZ016>042-302100-
NORTHERN LOWER MICHIGAN

CITY           SKY/WX    TMP DP  RH WIND       PRES   REMARKS
ALPENA         LGT RAIN  37  35  92 E15G29    30.04F WCI  28
BEAVER ISLAND  CLOUDY    37  35  92 E15G28    30.03F FOG     WCI  28
BELLAIRE       FLURRIES  40  36  86 NE7G18    29.98F
CADILLAC       LGT RAIN  39  38  95 NE15      29.91F WCI  31
CHARLEVOIX     CLOUDY    38  35  90 E21G26    30.01F WCI  27
FRANKFORT      DRIZZLE   41  37  87 NE6       29.96R
GAYLORD        LGT RAIN  37  34  89 NE14G23   29.97F FOG     WCI  28
GRAYLING       LGT RAIN  38  36  92 E14G22    29.96S WCI  29
HARBOR SPRINGS DRIZZLE   36  35  94 E20G26    30.00F WCI  26
HOUGHTON LAKE  LGT RAIN  39  36  89 E15       29.94F FOG     WCI  31
MANISTEE       LGT RAIN  43  40  89 NE13      29.92F
OSCODA         LGT SNOW  39  37  93 NE18G26   29.98F WCI  30
PELLSTON       LGT RAIN  37  33  85 E18       30.03F WCI  27
ROGERS CITY    LGT SNOW  36  34  94 E18G25    30.07F WCI  25
TRAVERSE CITY  LGT RAIN  42  39  89 NE8       29.95F FOG
$$
MIZ007>008-015-302100-
EASTERN UPPER MICHIGAN

CITY           SKY/WX    TMP DP  RH WIND       PRES   REMARKS
KINROSS        LGT RAIN  39  30  70 E15       30.06F WCI  31
MACKINAC ISLAN CLOUDY    36  35  97 E14G24    30.05F WCI  27
NEWBERRY       CLOUDY    45  29  53 E9        30.04F
S. S. MARIE    LGT RAIN  43  30  60 E8        30.06F
MUNISING         N/A     42  33  70 N5        30.03F
$$
MIZ004>006-011>014-085-302100-
CENTRAL UPPER MICHIGAN

CITY           SKY/WX    TMP DP  RH WIND       PRES   REMARKS
MANISTIQUE     DRIZZLE   39  35  85 E12       30.04F WCI  32
ESCANABA       CLOUDY    41  32  70 E14G22    30.03F
SAWYER-GWINN   CLOUDY    45  27  49 N16       30.02F
$$
MIZ001>003-009>011-084-302100-
WESTERN UPPER MICHIGAN

CITY           SKY/WX    TMP DP  RH WIND       PRES   REMARKS
IRON MOUNTAIN  CLOUDY    47  28  47 E9        29.98F
HOUGHTON       CLOUDY    45  24  43 E14G22    30.06F
COPPER HARBOR    N/A     42  34  73 E5        30.10F
IRONWOOD       LGT RAIN  43  29  57 N14       30.01F
$$

ABBREVIATIONS USED IN REMARKS
   TC - TEMPERATURE IN CELSIUS
  WCI - WIND CHILL INDEX
   HX - HEAT INDEX
  VSB - VISIBILITY





USA.gov is the U.S. government's official web portal to all federal, state and local government web resources and services.